NIMBUS 2 DEB, 28977

Orbit data source: Space-Track

NIMBUS 2 DEB, 28977 is space debris in SSO originally from a launch on Sun, 15 May 1966 UTC launched from the Air Force Western Test Range (AFWTR). Debris objects in space refer to the collection of defunct objects orbiting the Earth. Examples of debris include non-operational satellites, rocket bodies, and fragments generated from explosions, collisions, or faulty payload assembly.

Loading next visibility...
Identifier
28977, 1966-040AN
Orbit
SSO
Country
Flag of USUS
Related business
Manufacturer
Unknown
Mission
Spacecraft
Bus & Motor
Unknown
Mass
Unknown
Launch date (UTC)
1966-05-15 (60 years ago)
Launch vehicle
Unknown
Launch site
Air Force Western Test Range (AFWTR)
Object type
Payload
Rocket body
Debris
Shape & HBR
Unknown shape, 0.1 m
Radar Cross Section
Small (<0.1 m²)

Expand to show TLE details & history
Last TLE update: 3 days ago

TLE from 3 days ago
0 NIMBUS 2 DEB
1 28977U 66040AN  25349.81385106  .00001720  00000-0  26444-2 0  9996
2 28977 100.4705 297.0826 0045227 139.4337 250.4393 13.52772874988058
Epoch: 2025-12-15T19:31Z
TLE epoch observation values (Epoch: 2025-12-15T19:31:56.731Z)
Latitude
28.89617°
Longitude
-86.43514°
Altitude
1,076.921 km
Speed
7.311 km/s
True Right ascension
19h 25m 01s
True Declination
28° 45' 26"
Sunlit
Object was in daylight at epoch
Visualization orbit readout
Latitude
Unknown
Longitude
Unknown
Altitude
Unknown
Speed
Unknown
Apparent Right ascension
Unknown
Apparent Declination
Unknown
Sunlit
N/A
Visualization observer readout
Local Sidereal Time
17:01:23
Azimuth
Unknown
Elevation
Unknown
Doppler factor
Unknown
Orbital elements
Apogee altitude
1,093.051 km
Perigee altitude
1,025.775 km
Semi-major axis
7,437.55 km
Eccentricity
0.00452
Inclination
100.4705°
RAAN
297.0826°
Arg. of periapsis
139.4337°
True anomaly
249.95188°
Mean anomaly
250.4393°
Eccentric anomaly
250.19549°
Mean motion
3.38375 °/min
Orbital period
106.39 mins
BSTAR
0.0026444
Loading maneuver chart data...
Computing Atmospheric mass density...
Loading historical data...
Loading historical data...
Loading historical data...
Loading historical data...
Loading historical data...
Loading historical data...
Loading historical data...

Documentation

Showing up to 5 results
|